Location: Sungai Bunut
(2.6333°N, 113.7333°E)
Time: 21:50:07
(UTC+00:00)

Vanguard 1 Rocket - All Passes

Search period start: 06 December 2023 00:00
Search period end: 16 December 2023 00:00
Orbit: 655 x 4218 km, 34.3° (Epoch: 05 December)

Date Brightness Start Highest point End Pass type
(mag) Time Alt. Az. Time Alt. Az. Time Alt. Az.
06 Dec - 04:23:53 10° NNW 04:28:39 28° NNE 04:32:30 10° E daylight
06 Dec - 06:50:03 10° W 06:53:34 23° SSW 06:57:32 10° SSE daylight
06 Dec - 14:15:41 10° SSW 14:30:22 28° SE 14:50:07 10° E visible
06 Dec - 16:41:07 10° SW 17:04:00 70° SE 17:28:54 10° ENE visible
06 Dec - 19:12:34 10° WSW 19:37:56 57° NW 19:57:56 10° NE visible
06 Dec - 21:55:58 10° WNW 22:11:55 22° NNW 22:23:05 10° NNE visible
07 Dec - 03:12:35 10° NNW 03:16:32 16° NNE 03:19:40 10° ENE daylight
07 Dec - 05:37:34 10° WNW 05:42:18 61° SW 05:46:46 10° SE daylight
07 Dec - 13:05:46 10° S 13:14:41 16° SSE 13:26:18 10° ESE visible
07 Dec - 15:28:38 10° SSW 15:48:05 51° SE 16:12:48 10° ENE visible
07 Dec - 17:56:52 10° WSW 18:21:47 77° NW 18:45:03 10° NE visible
07 Dec - 20:34:12 10° W 20:56:02 34° NNW 21:11:46 10° NNE visible
07 Dec - 23:24:19 10° NW 23:30:57 13° NNW 23:36:15 10° N daylight
08 Dec - 02:00:56 10° N 02:03:32 11° N 02:05:46 10° NNE daylight
08 Dec - 04:25:33 10° NW 04:31:09 49° NNE 04:35:25 10° ESE daylight
08 Dec - 06:54:05 10° WSW 06:56:06 13° SSW 06:58:13 10° S daylight
08 Dec - 14:17:12 10° SSW 14:32:37 34° SE 14:54:09 10° E visible
08 Dec - 16:42:55 10° SW 17:05:34 82° SE 17:31:01 10° NE visible
08 Dec - 19:15:21 10° WSW 19:39:51 48° NW 19:59:43 10° NE visible
08 Dec - 22:00:43 10° WNW 22:15:03 20° NNW 22:25:23 10° NNE visible
09 Dec - 00:46:49 10° NNW 00:49:34 11° N 00:51:59 10° NNE daylight
09 Dec - 03:13:32 10° NNW 03:19:20 25° NNE 03:23:27 10° E daylight
09 Dec - 05:40:15 10° WNW 05:44:37 33° SW 05:48:39 10° SSE daylight
09 Dec - 13:07:00 10° S 13:17:30 20° SE 13:31:58 10° ESE visible
09 Dec - 15:30:17 10° SW 15:49:44 60° SE 16:15:23 10° ENE visible
09 Dec - 17:59:07 10° WSW 18:23:28 66° NW 18:46:51 10° NE visible
09 Dec - 20:38:13 10° W 20:58:41 29° NNW 21:13:47 10° NNE visible
09 Dec - 23:27:45 10° NNW 23:34:33 13° N 23:39:54 10° NNE daylight
10 Dec - 02:01:03 10° NNW 02:06:39 17° NNE 02:10:44 10° NE daylight
10 Dec - 04:27:32 10° NW 04:33:33 87° NE 04:37:58 10° SE daylight
10 Dec - 14:18:44 10° SSW 14:34:33 41° SE 14:57:34 10° ENE visible
10 Dec - 16:44:52 10° SW 17:07:08 87° NW 17:32:55 10° NE visible
10 Dec - 19:18:32 10° W 19:42:02 41° NNW 20:01:32 10° NE visible
10 Dec - 22:05:23 10° NW 22:18:29 18° NNW 22:28:04 10° NNE visible
11 Dec - 00:47:09 10° NNW 00:52:58 14° N 00:57:25 10° NE daylight
11 Dec - 03:14:56 10° NW 03:22:01 39° NNE 03:26:38 10° E daylight
11 Dec - 05:43:30 10° W 05:46:53 19° SW 05:50:03 10° S daylight
11 Dec - 13:08:19 10° SSW 13:19:54 25° SE 13:36:49 10° E visible
11 Dec - 15:32:03 10° SW 15:51:17 71° SE 16:17:37 10° ENE visible
11 Dec - 18:01:40 10° WSW 18:25:19 57° NW 18:48:34 10° NE visible
11 Dec - 20:42:35 10° WNW 21:01:40 26° NNW 21:15:58 10° NNE visible
11 Dec - 23:30:12 10° NNW 23:38:10 15° N 23:44:09 10° NNE daylight
12 Dec - 02:01:58 10° NNW 02:09:37 24° NNE 02:14:36 10° ENE daylight
12 Dec - 04:29:49 10° WNW 04:35:48 53° SW 04:40:09 10° SE daylight
12 Dec - 12:00:22 10° SSE 12:05:28 12° SE 12:11:40 10° ESE visible
12 Dec - 14:20:23 10° SSW 14:36:16 50° SE 15:00:28 10° ENE visible
12 Dec - 16:47:01 10° WSW 17:08:48 75° NW 17:34:40 10° NE visible
12 Dec - 19:22:06 10° W 19:44:32 36° NNW 20:03:26 10° NNE visible
12 Dec - 22:09:33 10° NW 22:22:06 18° N 22:31:17 10° NNE daylight
13 Dec - 00:48:00 10° NNW 00:56:14 19° NNE 01:01:50 10° NE daylight
13 Dec - 03:16:37 10° NW 03:24:32 64° NNE 03:29:23 10° ESE daylight
13 Dec - 05:48:24 10° SW 05:49:10 10° SW 05:49:56 10° SSW daylight
13 Dec - 13:09:45 10° SSW 13:21:58 31° SE 13:40:53 10° E visible
13 Dec - 15:33:58 10° SW 15:52:52 83° SE 16:19:35 10° NE visible
13 Dec - 18:04:32 10° WSW 18:27:24 48° NNW 18:50:16 10° NE visible
13 Dec - 20:47:07 10° WNW 21:05:01 23° NNW 21:18:30 10° NNE visible
13 Dec - 23:32:01 10° NNW 23:41:42 17° N 23:48:31 10° NE daylight
14 Dec - 02:03:12 10° NW 02:12:27 36° NNE 02:17:55 10° E daylight
14 Dec - 04:32:30 10° WNW 04:37:56 31° SW 04:42:01 10° SSE daylight
14 Dec - 12:00:43 10° S 12:08:04 16° SE 12:18:02 10° ESE visible
14 Dec - 14:22:07 10° SW 14:37:51 60° SE 15:02:57 10° ENE visible
14 Dec - 16:49:24 10° WSW 17:10:37 65° NW 17:36:18 10° NE visible
14 Dec - 19:26:02 10° W 19:47:23 31° NNW 20:05:30 10° NNE visible
14 Dec - 22:13:01 10° NW 22:25:48 18° N 22:34:59 10° NE daylight
15 Dec - 00:49:03 10° NNW 00:59:21 26° NNE 01:05:41 10° ENE daylight
15 Dec - 03:18:33 10° NW 03:26:51 81° SW 03:31:48 10° SE daylight
15 Dec - 13:11:16 10° SSW 13:23:47 38° SE 13:44:18 10° ENE visible
15 Dec - 15:36:02 10° SW 15:54:30 85° NW 16:21:20 10° NE visible
15 Dec - 18:07:45 10° W 18:29:47 41° NNW 18:52:01 10° NE visible
15 Dec - 20:51:32 10° NW 21:08:37 22° NNW 21:21:28 10° NNE visible
15 Dec - 23:33:30 10° NNW 23:45:06 21° N 23:52:41 10° NE daylight
